Time,TemperatureF,DewpointF,PressureIn,WindDirection,WindDirectionDegrees,WindSpeedMPH,WindSpeedGustMPH,Humidity,HourlyPrecipIn,Conditions,Clouds,dailyrainin,SoftwareType,DateUTC
2013-06-25 05:40:00,72.9,72.0,29.95,SSW,201,5.0,7.0,97,0.00,,,0.01,Wunderground v.1.15,2013-06-25 10:40:00,
2013-06-25 05:45:00,72.9,71.7,29.95,SW,235,5.0,7.0,96,0.00,,,0.01,Wunderground v.1.15,2013-06-25 10:45:00,
2013-06-25 05:50:00,73.0,71.8,29.95,SW,222,5.0,5.0,96,0.00,,,0.01,Wunderground v.1.15,2013-06-25 10:50:00,
2013-06-25 05:55:00,73.1,71.9,29.95,South,177,5.0,6.0,96,0.00,,,0.01,Wunderground v.1.15,2013-06-25 10:55:00,
2013-06-25 06:00:00,73.1,71.9,29.94,SW,226,5.0,5.0,96,0.00,,,0.01,Wunderground v.1.15,2013-06-25 11:00:00,
2013-06-25 06:10:00,73.1,71.9,29.94,SSW,204,5.0,5.0,96,0.00,,,0.01,Wunderground v.1.15,2013-06-25 11:10:00,
2013-06-25 06:20:00,73.5,72.3,29.94,SW,232,5.0,5.0,96,0.00,,,0.01,Wunderground v.1.15,2013-06-25 11:20:00,
2013-06-25 06:25:00,73.8,72.3,29.94,WSW,238,5.0,6.0,95,0.00,,,0.01,Wunderground v.1.15,2013-06-25 11:25:00,
2013-06-25 06:30:00,74.0,72.5,29.94,WSW,239,5.0,8.0,95,0.00,,,0.01,Wunderground v.1.15,2013-06-25 11:30:00,
2013-06-25 06:35:00,74.1,72.6,29.94,South,176,5.0,8.0,95,0.00,,,0.01,Wunderground v.1.15,2013-06-25 11:35:00,
2013-06-25 06:45:00,73.8,72.3,29.94,SSW,204,6.0,7.0,95,0.00,,,0.01,Wunderground v.1.15,2013-06-25 11:45:00,
2013-06-25 06:55:00,74.2,72.7,29.94,SSW,212,6.0,7.0,95,0.00,,,0.01,Wunderground v.1.15,2013-06-25 11:55:00,
2013-06-25 07:00:00,74.6,72.8,29.94,SW,225,6.0,6.0,94,0.00,,,0.01,Wunderground v.1.15,2013-06-25 12:00:00,
2013-06-25 07:10:00,74.7,72.5,29.93,SSW,203,7.0,7.0,93,0.00,,,0.01,Wunderground v.1.15,2013-06-25 12:10:00,
2013-06-25 07:20:00,75.3,72.8,29.94,SW,233,6.0,6.0,92,0.00,,,0.01,Wunderground v.1.15,2013-06-25 12:20:00,
2013-06-25 07:30:00,76.1,73.3,29.95,WSW,239,5.0,5.0,91,0.00,,,0.01,Wunderground v.1.15,2013-06-25 12:30:00,
2013-06-25 07:35:00,75.9,73.1,29.96,SW,232,4.0,5.0,91,0.00,,,0.01,Wunderground v.1.15,2013-06-25 12:35:00,
2013-06-25 07:45:00,75.8,73.0,29.97,SW,235,3.0,3.0,91,0.00,,,0.01,Wunderground v.1.15,2013-06-25 12:45:00,
2013-06-25 07:55:00,75.8,73.0,29.97,SW,214,3.0,6.0,91,0.00,,,0.01,Wunderground v.1.15,2013-06-25 12:55:00,
2013-06-25 08:00:00,75.9,73.1,29.98,SSW,203,3.0,3.0,91,0.00,,,0.01,Wunderground v.1.15,2013-06-25 13:00:00,
2013-06-25 08:10:00,76.0,73.2,29.99,SW,235,3.0,3.0,91,0.00,,,0.01,Wunderground v.1.15,2013-06-25 13:10:00,
2013-06-25 08:15:00,76.0,73.2,29.98,SSW,193,3.0,3.0,91,0.00,,,0.01,Wunderground v.1.15,2013-06-25 13:15:00,
2013-06-25 08:25:00,76.0,72.9,29.99,SW,232,3.0,4.0,90,0.00,,,0.01,Wunderground v.1.15,2013-06-25 13:25:00,
2013-06-25 08:35:00,76.0,72.9,29.99,South,191,3.0,5.0,90,0.00,,,0.01,Wunderground v.1.15,2013-06-25 13:35:00,
2013-06-25 08:40:00,76.0,72.9,29.99,SW,226,3.0,3.0,90,0.00,,,0.01,Wunderground v.1.15,2013-06-25 13:40:00,
2013-06-25 08:50:00,76.0,72.9,29.99,WSW,248,4.0,7.0,90,0.00,,,0.01,Wunderground v.1.15,2013-06-25 13:50:00,
2013-06-25 09:00:00,76.3,73.1,29.99,SSE,165,4.0,6.0,90,0.00,,,0.01,Wunderground v.1.15,2013-06-25 14:00:00,
2013-06-25 09:10:00,76.9,73.4,29.99,SW,226,4.0,6.0,89,0.00,,,0.01,Wunderground v.1.15,2013-06-25 14:10:00,
2013-06-25 09:15:00,77.1,73.3,29.99,SW,221,5.0,6.0,88,0.00,,,0.01,Wunderground v.1.15,2013-06-25 14:15:00,
2013-06-25 09:25:00,77.5,73.3,29.98,SSW,212,4.0,5.0,87,0.00,,,0.01,Wunderground v.1.15,2013-06-25 14:25:00,
2013-06-25 09:35:00,78.0,73.5,29.98,SSW,207,5.0,5.0,86,0.00,,,0.01,Wunderground v.1.15,2013-06-25 14:35:00,
2013-06-25 09:45:00,78.7,73.5,29.97,WSW,246,5.0,7.0,84,0.00,,,0.01,Wunderground v.1.15,2013-06-25 14:45:00,
2013-06-25 09:50:00,79.0,73.4,29.97,SW,219,6.0,6.0,83,0.00,,,0.01,Wunderground v.1.15,2013-06-25 14:50:00,
2013-06-25 10:00:00,80.1,73.7,29.97,WNW,287,7.0,7.0,81,0.00,,,0.01,Wunderground v.1.15,2013-06-25 15:00:00,
2013-06-25 10:10:00,80.9,74.1,29.98,SW,215,5.0,8.0,80,0.00,,,0.01,Wunderground v.1.15,2013-06-25 15:10:00,
2013-06-25 10:20:00,81.5,74.0,29.98,West,274,5.0,7.0,78,0.00,,,0.01,Wunderground v.1.15,2013-06-25 15:20:00,
2013-06-25 10:25:00,81.3,74.2,29.98,SSE,163,6.0,8.0,79,0.00,,,0.01,Wunderground v.1.15,2013-06-25 15:25:00,
2013-06-25 10:30:00,81.0,73.5,29.98,SW,236,5.0,5.0,78,0.00,,,0.01,Wunderground v.1.15,2013-06-25 15:30:00,
2013-06-25 10:40:00,80.8,73.7,29.98,WSW,248,4.0,4.0,79,0.00,,,0.01,Wunderground v.1.15,2013-06-25 15:40:00,
2013-06-25 10:50:00,81.6,74.1,29.98,South,190,4.0,5.0,78,0.00,,,0.01,Wunderground v.1.15,2013-06-25 15:50:00,
2013-06-25 11:00:00,82.0,74.5,29.98,WSW,240,4.0,4.0,78,0.00,,,0.01,Wunderground v.1.15,2013-06-25 16:00:00,
2013-06-25 11:10:00,82.3,74.4,29.98,WSW,257,5.0,6.0,77,0.00,,,0.01,Wunderground v.1.15,2013-06-25 16:10:00,
2013-06-25 11:15:00,82.3,74.0,29.98,SW,226,6.0,6.0,76,0.00,,,0.01,Wunderground v.1.15,2013-06-25 16:15:00,
2013-06-25 11:25:00,82.5,74.6,29.97,West,260,6.0,8.0,77,0.00,,,0.01,Wunderground v.1.15,2013-06-25 16:25:00,
2013-06-25 11:30:00,82.8,74.5,29.97,WSW,238,6.0,6.0,76,0.00,,,0.01,Wunderground v.1.15,2013-06-25 16:30:00,
2013-06-25 11:40:00,83.2,74.8,29.97,West,259,5.0,5.0,76,0.00,,,0.01,Wunderground v.1.15,2013-06-25 16:40:00,
2013-06-25 11:50:00,83.6,74.8,29.97,WSW,257,5.0,7.0,75,0.00,,,0.01,Wunderground v.1.15,2013-06-25 16:50:00,
2013-06-25 12:00:00,83.9,74.7,29.97,SW,229,5.0,11.0,74,0.00,,,0.01,Wunderground v.1.15,2013-06-25 17:00:00,
2013-06-25 12:10:00,84.7,75.5,29.96,SSW,207,5.0,5.0,74,0.00,,,0.01,Wunderground v.1.15,2013-06-25 17:10:00,
2013-06-25 12:15:00,84.5,74.9,29.97,South,190,5.0,5.0,73,0.00,,,0.01,Wunderground v.1.15,2013-06-25 17:15:00,
2013-06-25 12:25:00,84.7,74.7,29.96,South,188,4.0,6.0,72,0.00,,,0.01,Wunderground v.1.15,2013-06-25 17:25:00,
2013-06-25 12:30:00,84.3,74.7,29.96,WSW,238,5.0,5.0,73,0.00,,,0.01,Wunderground v.1.15,2013-06-25 17:30:00,
2013-06-25 12:40:00,84.4,74.8,29.97,SW,222,4.0,5.0,73,0.00,,,0.01,Wunderground v.1.15,2013-06-25 17:40:00,
2013-06-25 12:50:00,85.6,74.7,29.96,SW,215,5.0,7.0,70,0.00,,,0.01,Wunderground v.1.15,2013-06-25 17:50:00,
2013-06-25 12:55:00,85.6,74.7,29.96,SW,235,5.0,7.0,70,0.00,,,0.01,Wunderground v.1.15,2013-06-25 17:55:00,
2013-06-25 13:00:00,85.7,75.2,29.96,SW,233,5.0,5.0,71,0.00,,,0.01,Wunderground v.1.15,2013-06-25 18:00:00,
2013-06-25 13:10:00,84.2,74.2,29.96,South,191,5.0,5.0,72,0.00,,,0.01,Wunderground v.1.15,2013-06-25 18:10:00,
2013-06-25 13:20:00,84.1,75.3,29.96,SW,218,5.0,5.0,75,0.00,,,0.01,Wunderground v.1.15,2013-06-25 18:20:00,
2013-06-25 13:30:00,84.4,74.8,29.95,SSW,207,5.0,5.0,73,0.00,,,0.01,Wunderground v.1.15,2013-06-25 18:30:00,
2013-06-25 13:35:00,84.7,75.5,29.95,SW,221,4.0,5.0,74,0.00,,,0.01,Wunderground v.1.15,2013-06-25 18:35:00,
2013-06-25 13:40:00,85.1,75.5,29.95,SW,232,3.0,4.0,73,0.00,,,0.01,Wunderground v.1.15,2013-06-25 18:40:00,
2013-06-25 13:50:00,85.1,75.5,29.95,WSW,255,4.0,5.0,73,0.00,,,0.01,Wunderground v.1.15,2013-06-25 18:50:00,
2013-06-25 14:00:00,85.0,75.8,29.94,SW,228,4.0,4.0,74,0.00,,,0.01,Wunderground v.1.15,2013-06-25 19:00:00,
2013-06-25 14:10:00,85.2,76.4,29.93,WSW,250,3.0,3.0,75,0.00,,,0.01,Wunderground v.1.15,2013-06-25 19:10:00,
2013-06-25 14:15:00,85.4,76.2,29.93,WSW,238,3.0,3.0,74,0.00,,,0.01,Wunderground v.1.15,2013-06-25 19:15:00,
2013-06-25 14:20:00,85.2,75.6,29.93,WSW,239,4.0,4.0,73,0.00,,,0.01,Wunderground v.1.15,2013-06-25 19:20:00,
2013-06-25 14:25:00,84.8,75.6,29.93,South,184,4.0,4.0,74,0.00,,,0.01,Wunderground v.1.15,2013-06-25 19:25:00,
2013-06-25 14:35:00,84.5,75.7,29.93,WSW,250,3.0,4.0,75,0.00,,,0.01,Wunderground v.1.15,2013-06-25 19:35:00,
2013-06-25 14:40:00,84.3,75.5,29.93,SSE,167,3.0,3.0,75,0.00,,,0.01,Wunderground v.1.15,2013-06-25 19:40:00,
2013-06-25 14:50:00,84.0,75.2,29.92,South,190,4.0,8.0,75,0.00,,,0.01,Wunderground v.1.15,2013-06-25 19:50:00,
2013-06-25 14:55:00,84.1,74.9,29.92,SW,233,4.0,8.0,74,0.00,,,0.01,Wunderground v.1.15,2013-06-25 19:55:00,
2013-06-25 15:05:00,84.2,75.4,29.90,SSW,207,4.0,4.0,75,0.00,,,0.01,Wunderground v.1.15,2013-06-25 20:05:00,
2013-06-25 15:10:00,84.1,74.9,29.90,SW,215,5.0,8.0,74,0.00,,,0.01,Wunderground v.1.15,2013-06-25 20:10:00,
2013-06-25 15:20:00,83.7,74.9,29.91,SW,219,5.0,6.0,75,0.00,,,0.01,Wunderground v.1.15,2013-06-25 20:20:00,
2013-06-25 15:30:00,83.9,74.7,29.91,SW,232,4.0,4.0,74,0.00,,,0.01,Wunderground v.1.15,2013-06-25 20:30:00,
2013-06-25 15:35:00,84.0,74.8,29.91,WSW,240,4.0,6.0,74,0.00,,,0.01,Wunderground v.1.15,2013-06-25 20:35:00,
2013-06-25 15:40:00,83.8,75.0,29.90,SW,235,4.0,4.0,75,0.00,,,0.01,Wunderground v.1.15,2013-06-25 20:40:00,
2013-06-25 15:50:00,82.4,75.6,29.91,WSW,252,6.0,6.0,80,0.00,,,0.01,Wunderground v.1.15,2013-06-25 20:50:00,
2013-06-25 16:00:00,79.6,72.9,29.91,WSW,238,8.0,11.0,80,0.00,,,0.01,Wunderground v.1.15,2013-06-25 21:00:00,
2013-06-25 16:10:00,76.9,69.9,29.91,SW,225,7.0,7.0,79,0.00,,,0.01,Wunderground v.1.15,2013-06-25 21:10:00,
2013-06-25 16:25:00,75.7,69.5,29.91,SW,235,4.0,4.0,81,0.00,,,0.01,Wunderground v.1.15,2013-06-25 21:25:00,
2013-06-25 16:30:00,75.4,69.2,29.91,SW,226,3.0,5.0,81,0.00,,,0.01,Wunderground v.1.15,2013-06-25 21:30:00,
2013-06-25 16:40:00,74.9,69.0,29.91,SW,218,4.0,4.0,82,0.00,,,0.01,Wunderground v.1.15,2013-06-25 21:40:00,
2013-06-25 16:45:00,74.7,69.2,29.91,South,181,4.0,4.0,83,0.00,,,0.01,Wunderground v.1.15,2013-06-25 21:45:00,
2013-06-25 16:55:00,74.4,69.6,29.90,SW,232,4.0,6.0,85,0.00,,,0.01,Wunderground v.1.15,2013-06-25 21:55:00,
2013-06-25 17:00:00,74.4,68.9,29.89,WSW,242,4.0,4.0,83,0.00,,,0.01,Wunderground v.1.15,2013-06-25 22:00:00,
2013-06-25 17:10:00,75.1,69.2,29.89,South,169,5.0,5.0,82,0.00,,,0.01,Wunderground v.1.15,2013-06-25 22:10:00,
2013-06-25 17:15:00,76.4,69.0,29.89,SW,228,5.0,5.0,78,0.00,,,0.01,Wunderground v.1.15,2013-06-25 22:15:00,
2013-06-25 17:20:00,77.5,69.3,29.89,SSW,197,5.0,6.0,76,0.00,,,0.01,Wunderground v.1.15,2013-06-25 22:20:00,
2013-06-25 17:30:00,78.6,69.2,29.89,South,169,5.0,5.0,73,0.00,,,0.01,Wunderground v.1.15,2013-06-25 22:30:00,
2013-06-25 17:40:00,79.4,69.6,29.88,SE,145,5.0,6.0,72,0.00,,,0.01,Wunderground v.1.15,2013-06-25 22:40:00,
2013-06-25 17:50:00,79.0,69.6,29.88,WSW,245,3.0,3.0,73,0.00,,,0.01,Wunderground v.1.15,2013-06-25 22:50:00,
2013-06-25 17:55:00,79.2,69.4,29.88,South,188,3.0,3.0,72,0.00,,,0.01,Wunderground v.1.15,2013-06-25 22:55:00,
2013-06-25 18:00:00,80.0,70.2,29.88,South,179,3.0,3.0,72,0.00,,,0.01,Wunderground v.1.15,2013-06-25 23:00:00,
2013-06-25 18:10:00,80.7,70.0,29.87,SSE,166,3.0,4.0,70,0.00,,,0.01,Wunderground v.1.15,2013-06-25 23:10:00,
2013-06-25 18:15:00,80.7,70.4,29.88,SSE,153,3.0,4.0,71,0.00,,,0.01,Wunderground v.1.15,2013-06-25 23:15:00,
2013-06-25 18:25:00,81.1,70.4,29.88,SSW,194,4.0,5.0,70,0.00,,,0.01,Wunderground v.1.15,2013-06-25 23:25:00,
2013-06-25 18:30:00,81.3,70.2,29.87,SSE,166,4.0,5.0,69,0.00,,,0.01,Wunderground v.1.15,2013-06-25 23:30:00,
2013-06-25 18:40:00,81.6,70.4,29.87,SW,222,3.0,3.0,69,0.00,,,0.01,Wunderground v.1.15,2013-06-25 23:40:00,
2013-06-25 18:50:00,81.5,71.2,29.87,South,191,3.0,6.0,71,0.00,,,0.01,Wunderground v.1.15,2013-06-25 23:50:00,
2013-06-25 18:55:00,81.6,71.7,29.87,SSW,193,3.0,6.0,72,0.00,,,0.01,Wunderground v.1.15,2013-06-25 23:55:00,
2013-06-25 19:00:00,81.7,71.8,29.87,WSW,250,3.0,4.0,72,0.00,,,0.01,Wunderground v.1.15,2013-06-26 00:00:00,
2013-06-25 19:10:00,81.9,72.4,29.87,South,187,3.0,3.0,73,0.00,,,0.01,Wunderground v.1.15,2013-06-26 00:10:00,
2013-06-25 19:15:00,81.9,72.8,29.88,South,179,3.0,4.0,74,0.00,,,0.01,Wunderground v.1.15,2013-06-26 00:15:00,
2013-06-25 19:20:00,81.7,73.0,29.88,SW,227,3.0,3.0,75,0.00,,,0.01,Wunderground v.1.15,2013-06-26 00:20:00,
2013-06-25 19:30:00,80.7,73.2,29.88,South,181,3.0,3.0,78,0.00,,,0.01,Wunderground v.1.15,2013-06-26 00:30:00,
2013-06-25 19:40:00,79.6,72.9,29.88,SW,235,4.0,5.0,80,0.00,,,0.01,Wunderground v.1.15,2013-06-26 00:40:00,
2013-06-25 19:50:00,78.9,72.9,29.88,SW,222,4.0,4.0,82,0.00,,,0.01,Wunderground v.1.15,2013-06-26 00:50:00,
2013-06-25 19:55:00,78.4,72.8,29.87,SW,236,3.0,4.0,83,0.00,,,0.01,Wunderground v.1.15,2013-06-26 00:55:00,
2013-06-25 20:00:00,78.1,72.9,29.87,South,174,3.0,3.0,84,0.00,,,0.01,Wunderground v.1.15,2013-06-26 01:00:00,
2013-06-25 20:10:00,77.4,72.9,29.87,South,178,3.0,6.0,86,0.00,,,0.01,Wunderground v.1.15,2013-06-26 01:10:00,
2013-06-25 20:15:00,77.1,72.6,29.87,SW,218,3.0,6.0,86,0.00,,,0.01,Wunderground v.1.15,2013-06-26 01:15:00,
2013-06-25 20:25:00,76.9,72.4,29.87,SSE,167,2.0,4.0,86,0.00,,,0.01,Wunderground v.1.15,2013-06-26 01:25:00,
2013-06-25 20:35:00,76.6,72.1,29.87,South,178,3.0,5.0,86,0.00,,,0.01,Wunderground v.1.15,2013-06-26 01:35:00,
2013-06-25 20:45:00,76.3,71.8,29.87,South,190,3.0,5.0,86,0.00,,,0.01,Wunderground v.1.15,2013-06-26 01:45:00,
2013-06-25 20:50:00,76.2,71.4,29.88,South,184,4.0,5.0,85,0.00,,,0.01,Wunderground v.1.15,2013-06-26 01:50:00,
2013-06-25 20:55:00,76.3,71.8,29.88,South,176,4.0,5.0,86,0.00,,,0.01,Wunderground v.1.15,2013-06-26 01:55:00,
2013-06-25 21:00:00,76.1,71.6,29.88,SSW,192,3.0,3.0,86,0.00,,,0.01,Wunderground v.1.15,2013-06-26 02:00:00,
2013-06-25 21:10:00,75.8,71.7,29.89,South,183,2.0,2.0,87,0.00,,,0.01,Wunderground v.1.15,2013-06-26 02:10:00,
2013-06-25 21:20:00,75.7,71.6,29.89,SSW,212,2.0,2.0,87,0.00,,,0.01,Wunderground v.1.15,2013-06-26 02:20:00,
2013-06-25 21:30:00,75.9,71.1,29.91,SW,232,4.0,5.0,85,0.00,,,0.01,Wunderground v.1.15,2013-06-26 02:30:00,
2013-06-25 21:35:00,76.0,70.8,29.92,SW,229,5.0,6.0,84,0.00,,,0.01,Wunderground v.1.15,2013-06-26 02:35:00,